Theta_e
302 303 303 303 302 302 302 302 303 303 303 303 305 307 308 307 307 309 310 309 307 307 309 313 309 308 311 314 314 317 321 321 321 322 321 321 319 318 318 319 320 319 318 322 345
302 303 303 302 302 302 302 303 303 302 303 306 307 308 308 309 309 311 310 308 308 308 313 311 312 311 309 311 314 316 318 318 319 321 321 321 320 319 318 318 319 319 319 320 335
302 303 302 302 302 302 303 303 303 305 307 308 308 309 309 309 311 311 309 309 309 310 314 310 312 312 312 310 312 314 317 317 318 320 320 320 320 318 319 320 319 319 320 320 329
302 303 304 305 303 303 304 305 307 308 308 308 309 309 309 310 315 313 308 308 308 310 311 310 312 312 314 313 311 313 313 314 316 318 318 319 319 321 319 319 319 319 320 321 326
303 306 306 304 304 305 307 307 307 308 308 308 309 310 310 313 312 309 309 308 309 310 310 311 312 312 313 312 312 313 313 311 313 314 315 317 318 319 319 319 320 319 319 320 321
305 305 304 305 305 307 308 307 307 308 308 309 310 310 311 314 309 309 309 309 310 310 311 311 312 313 313 313 312 312 312 312 312 312 313 316 317 317 318 318 318 319 320 321 321
306 306 306 306 307 308 309 311 310 310 309 310 310 310 312 312 311 310 310 311 311 311 312 312 311 312 312 314 313 313 314 313 313 313 314 312 313 316 315 317 318 319 319 320 321
304 307 307 308 309 310 311 311 310 310 310 311 310 310 315 311 310 311 312 312 312 312 311 312 311 311 312 312 312 313 313 313 313 314 313 313 313 315 314 315 317 317 319 320 321
302 308 307 309 310 310 310 310 310 310 310 311 312 312 314 311 312 311 313 313 313 313 312 312 312 312 312 313 314 314 314 313 313 314 315 314 314 315 314 315 317 317 318 319 319
303 306 308 309 310 310 310 310 311 310 310 311 311 314 313 313 312 311 311 313 313 313 313 313 313 314 315 315 315 313 313 313 313 313 313 314 314 314 315 316 317 317 318 319 319
305 302 308 308 309 310 310 312 313 314 312 313 313 313 312 312 311 311 311 313 314 314 316 314 315 316 315 315 315 314 314 314 315 314 313 315 316 316 316 315 317 318 319 320 320
307 303 308 309 308 310 310 312 312 311 313 313 313 312 312 311 311 311 311 313 314 315 315 316 316 315 315 315 315 316 316 316 315 315 315 315 314 314 315 317 317 318 319 320 321
306 303 309 309 308 310 310 311 310 311 314 314 312 312 312 311 312 312 312 313 314 315 316 316 316 315 315 315 315 316 316 316 316 316 316 315 315 315 315 313 314 316 317 320 321
304 305 310 309 311 309 312 310 310 311 317 312 311 312 311 312 313 312 311 312 314 315 315 315 315 315 316 316 316 317 316 316 315 314 318 316 318 317 316 315 314 315 316 318 320
303 308 310 309 308 311 309 310 312 312 314 311 311 311 312 312 312 313 313 313 314 315 314 316 315 315 317 317 316 316 315 316 316 316 315 316 316 316 316 315 315 315 316 318 320
303 308 309 309 310 308 309 310 312 317 312 312 312 313 314 313 312 312 312 312 313 315 315 315 314 314 316 316 316 315 316 317 316 316 321 317 317 317 316 316 315 317 315 318 320
303 308 308 308 307 307 309 312 317 311 312 313 313 313 313 314 313 313 314 314 315 318 317 316 316 316 315 317 316 315 319 320 321 321 319 316 316 316 315 315 317 317 317 318 321
303 307 308 308 305 308 311 313 311 311 313 313 313 314 314 313 313 313 314 316 315 315 317 317 317 316 316 317 316 317 317 320 322 319 316 315 314 315 316 315 315 316 318 318 321
303 308 310 304 305 307 311 314 313 313 312 313 314 314 314 314 313 313 315 316 315 315 320 318 317 315 314 315 315 317 318 316 317 315 316 315 315 315 316 315 315 320 318 319 322
303 311 308 304 306 311 312 312 314 312 312 313 315 313 314 314 314 315 314 314 315 314 314 314 318 314 314 314 315 315 315 320 319 317 318 315 314 314 315 315 315 318 322 321 322
305 310 306 304 307 310 312 312 312 311 311 313 314 314 314 313 314 314 314 314 314 315 312 312 310 314 315 317 317 316 316 317 316 315 318 316 314 316 314 316 315 318 320 322 322
307 310 303 304 310 310 311 309 308 311 311 312 313 314 314 313 314 313 314 313 312 312 311 311 311 317 316 315 315 315 316 316 319 317 316 316 317 320 314 316 317 320 321 322 323
307 307 306 307 310 311 310 310 309 310 311 312 313 313 313 312 314 313 313 312 311 312 308 309 314 318 319 317 316 316 316 316 316 317 317 319 317 315 316 323 318 322 322 323 333
306 310 307 307 307 309 310 310 310 309 310 311 312 312 313 314 312 313 313 312 311 311 312 311 313 316 319 319 316 317 315 315 315 318 317 315 315 314 318 323 322 323 322 329 337
306 309 306 309 308 308 309 309 310 310 310 310 313 313 314 313 312 313 314 313 311 311 311 310 316 317 317 318 318 318 316 316 316 315 317 316 320 318 319 319 324 323 336 333 331
306 305 305 306 307 308 307 310 309 309 310 313 314 313 313 313 314 314 313 313 312 311 311 311 316 317 319 319 317 317 315 315 316 317 318 317 320 319 321 321 327 336 331 329 328
304 304 305 306 308 308 308 307 308 308 309 310 312 312 312 314 311 312 312 312 310 310 310 310 315 318 322 321 319 322 317 317 316 317 311 320 318 321 326 334 334 331 329 327 326
Wind_Speed
17 17 17 17 18 20 21 21 21 19 16 12 11 10 12 13 13 13 8 7 1 3 5 4 4 8 9 13 18 16 14 20 25 24 17 18 13 17 14 24 27 28 24 10 6
18 19 19 19 20 22 23 21 18 15 11 10 9 10 12 12 12 5 4 5 5 5 4 5 3 3 12 13 13 17 16 28 20 15 12 20 18 16 15 18 23 18 21 13 11
21 22 22 22 23 23 21 18 15 12 12 12 12 14 13 13 2 2 6 2 1 5 5 6 4 5 7 12 17 17 24 21 20 17 19 21 23 16 19 18 20 25 21 15 13
25 26 25 23 20 18 16 15 13 12 13 14 13 13 13 5 4 2 4 6 7 7 6 4 4 8 7 9 12 19 24 24 27 14 12 16 21 21 21 24 14 18 18 7 11
29 29 26 20 15 14 14 15 14 14 15 13 13 11 7 1 3 1 4 4 3 3 4 5 8 8 11 6 9 16 19 25 20 26 23 23 22 21 23 21 23 21 18 18 17
30 27 22 17 15 13 15 17 15 16 14 11 11 8 3 2 1 1 1 1 3 3 2 2 3 5 10 11 11 11 10 14 19 24 29 25 26 27 23 19 27 30 27 25 22
29 23 21 17 14 14 16 18 17 15 9 11 10 2 0 4 4 6 5 4 5 7 7 6 5 8 3 9 10 13 16 16 19 23 23 25 29 35 33 29 22 21 28 27 24
29 21 20 16 14 15 16 19 18 11 10 15 4 2 2 2 7 10 8 10 11 9 11 9 9 12 13 12 14 16 16 16 13 7 21 19 28 32 34 32 33 29 27 22 22
29 21 17 13 14 15 17 20 18 11 8 12 2 2 3 2 6 10 6 8 9 8 9 8 9 16 14 13 14 13 14 14 14 9 11 20 26 20 27 24 21 25 25 28 28
30 22 15 14 12 14 17 19 19 11 8 6 1 4 4 6 10 13 9 8 8 9 10 12 12 12 14 13 15 15 12 13 13 13 14 19 24 20 14 12 19 23 20 20 24
30 25 12 13 13 13 17 14 12 4 11 12 13 11 9 9 13 20 11 6 7 9 14 17 13 16 19 19 19 20 20 21 18 11 13 19 20 17 21 26 23 22 21 20 20
30 26 9 12 13 11 14 9 8 9 11 8 6 10 9 7 23 16 4 7 7 14 13 11 19 21 20 21 21 22 23 24 21 17 15 22 21 22 20 23 26 26 25 23 19
31 23 9 11 11 12 10 7 11 6 7 3 6 8 5 16 27 14 5 11 15 17 16 18 20 18 15 16 19 21 23 23 22 18 18 18 22 25 26 29 30 32 28 23 22
30 19 7 12 7 13 6 16 11 4 4 6 1 1 7 23 7 7 16 10 13 15 15 16 17 15 20 23 21 21 18 19 18 13 17 17 19 22 21 25 25 34 32 31 26
30 14 8 9 10 10 15 17 5 3 4 12 2 6 20 12 16 6 3 11 17 18 12 16 16 16 17 16 13 18 16 18 16 17 18 24 13 25 19 21 23 26 34 32 29
27 10 9 12 11 16 19 13 0 6 5 9 6 17 20 19 10 12 19 15 17 17 18 26 25 18 22 15 15 13 11 10 13 12 14 25 21 23 18 21 24 23 37 35 30
23 6 9 13 12 17 18 4 5 5 12 8 16 21 20 15 17 14 18 14 7 5 11 15 20 21 19 18 14 7 6 6 8 8 18 12 16 21 18 16 21 25 32 38 33
21 5 10 15 16 15 8 5 4 7 9 14 15 19 10 16 15 18 17 15 11 8 10 8 5 7 13 18 10 17 18 10 7 15 17 22 11 22 28 25 23 27 31 35 33
18 4 5 16 16 12 9 4 5 9 12 13 18 11 17 22 17 13 16 15 4 4 4 5 7 4 9 15 10 3 10 16 3 11 9 16 15 20 17 16 25 14 25 33 30
17 2 8 17 10 6 5 2 3 5 11 9 8 8 21 24 15 18 11 8 6 7 4 2 9 14 13 5 7 9 6 4 6 7 15 15 19 17 19 18 24 23 17 27 30
15 3 10 18 7 4 4 4 6 7 11 5 12 16 17 18 15 8 8 14 10 9 9 3 7 7 5 9 12 5 3 9 10 10 6 13 14 20 19 20 26 24 31 29 33
12 4 15 17 3 3 5 6 6 8 6 9 9 11 11 16 6 7 9 8 17 11 6 7 4 6 18 12 15 12 13 15 7 13 12 14 14 21 13 17 25 22 31 35 34
15 6 10 11 5 6 8 5 5 10 9 5 7 7 17 8 8 9 16 11 17 9 4 2 4 5 5 8 10 7 12 15 17 11 13 6 7 20 28 22 26 24 34 35 36
10 5 5 7 4 7 9 5 8 10 13 8 14 14 13 20 14 10 21 9 28 22 19 7 4 8 10 19 3 6 7 14 14 9 11 11 15 26 20 20 21 25 34 37 34
9 4 3 6 4 11 8 5 13 11 5 11 7 14 20 8 20 8 25 24 13 4 5 2 5 8 16 20 11 10 10 7 15 16 7 7 14 23 19 16 17 29 38 34 33
10 8 7 15 10 12 2 8 11 13 7 10 12 23 21 17 14 25 24 18 4 6 5 3 4 12 14 7 3 4 6 7 12 13 13 14 19 16 18 22 20 33 36 34 33
9 8 5 9 7 7 7 10 12 17 12 15 19 20 21 22 36 36 24 14 6 4 5 4 5 5 5 7 2 6 7 9 6 7 4 8 11 13 9 21 21 29 32 36 37
Wind_Direction
2 356 349 343 335 329 326 324 322 321 325 328 332 334 328 321 314 312 298 266 273 19 45 333 279 238 238 235 225 232 238 241 242 240 242 240 236 222 242 237 238 243 240 251 173
357 353 347 341 335 332 330 332 334 339 344 343 340 336 328 326 320 335 227 116 89 46 19 355 337 264 233 236 224 226 232 244 253 265 239 255 235 242 223 227 225 230 227 216 208
355 352 346 340 337 337 344 352 357 0 353 347 341 339 335 336 345 96 134 106 346 344 314 311 279 256 238 240 230 240 249 257 251 283 247 255 258 236 247 240 222 221 224 211 230
355 350 344 339 340 350 3 5 5 360 350 343 340 338 336 14 3 187 264 287 290 287 293 284 259 245 258 229 234 247 262 263 268 236 245 258 260 254 243 245 238 230 237 232 246
356 352 351 355 359 7 11 7 357 352 340 339 342 343 357 284 48 5 27 26 350 272 271 273 266 266 259 279 279 251 256 264 246 256 258 260 256 255 250 247 251 251 247 245 241
359 1 9 13 9 13 10 1 351 345 342 346 346 347 47 125 6 62 348 325 268 225 243 242 286 281 282 266 261 292 282 278 268 259 254 255 259 261 244 244 248 251 250 247 242
2 7 10 10 15 11 6 360 355 347 1 349 350 38 158 49 337 328 303 259 259 230 247 252 261 255 294 261 266 272 271 264 249 246 247 251 254 247 247 249 258 252 247 247 243
2 1 6 12 14 6 4 359 353 342 2 343 0 106 252 94 41 356 296 287 276 253 241 257 263 258 265 274 267 256 258 267 257 260 240 228 252 249 242 242 243 247 246 242 235
0 355 0 4 6 3 0 355 344 336 332 352 65 253 222 272 337 337 305 289 265 248 239 241 245 245 246 252 262 234 259 251 253 218 250 216 251 262 247 224 241 241 243 241 241
356 352 349 356 350 356 354 351 346 342 332 352 293 251 221 306 307 319 310 278 270 244 235 231 232 239 233 246 252 267 237 242 253 262 224 244 248 263 261 230 232 240 241 243 240
350 350 332 347 342 343 351 349 340 289 314 283 297 283 305 308 317 314 298 247 255 244 253 233 239 241 250 255 254 272 275 269 269 267 263 266 275 270 248 249 245 249 242 246 236
349 347 321 337 345 343 346 351 340 310 306 314 269 271 274 303 314 330 263 228 241 276 283 251 243 251 262 267 264 262 261 262 265 260 260 265 266 257 253 251 256 249 242 241 239
348 350 336 337 346 344 336 325 330 324 279 310 277 277 284 317 314 289 299 275 281 273 267 263 268 291 262 255 254 251 252 263 270 273 254 260 268 262 252 246 246 248 247 242 237
349 353 360 349 12 346 337 328 319 302 271 29 263 250 301 326 295 236 305 294 282 271 293 283 279 274 272 253 252 255 258 266 269 263 255 234 258 255 248 234 229 239 235 234 229
350 354 0 1 348 347 328 335 332 158 294 346 346 306 324 315 316 20 265 300 282 290 283 251 270 278 267 256 268 270 290 276 263 247 261 251 245 257 248 236 230 223 225 227 223
353 353 356 1 357 344 340 341 347 233 16 343 312 327 324 330 321 283 290 292 277 288 269 266 274 267 255 268 264 270 290 255 225 238 241 236 234 258 250 234 227 220 216 217 215
355 352 4 360 342 340 338 342 269 17 345 342 326 328 322 332 323 326 318 306 267 268 281 308 265 225 239 249 252 197 188 211 197 202 237 229 217 237 249 244 232 218 212 208 205
355 303 337 352 347 344 347 283 336 4 343 326 327 314 328 338 337 316 314 312 314 259 281 287 305 194 210 229 229 214 212 229 226 217 245 215 231 230 231 240 265 234 217 204 197
359 349 358 349 346 349 315 24 350 345 336 322 318 331 339 333 332 336 306 302 277 256 237 299 254 1 279 246 262 151 216 242 292 282 289 263 224 242 260 239 234 229 217 202 187
5 25 348 352 359 359 351 284 309 314 317 312 317 330 330 333 329 332 308 301 289 320 339 272 281 267 276 278 231 216 347 193 202 247 245 248 238 251 223 221 214 219 225 196 181
9 309 339 353 20 330 28 348 315 329 330 306 303 306 324 331 318 302 267 294 313 312 306 251 220 275 263 212 217 175 213 229 268 248 259 267 258 268 217 216 203 203 203 183 178
1 312 340 3 334 1 357 331 321 300 311 288 286 293 319 323 280 280 256 285 309 326 278 264 276 259 263 255 257 234 222 226 233 228 239 268 269 327 184 232 191 207 192 182 172
338 303 338 8 17 349 339 297 267 308 325 299 288 298 311 303 299 251 292 282 319 316 261 181 232 280 251 215 224 239 226 232 236 259 267 275 279 295 311 303 177 199 180 164 153
343 329 354 30 53 340 339 313 324 318 301 273 286 299 290 312 301 283 289 302 318 305 291 213 246 242 271 303 343 244 227 221 230 253 262 262 295 278 288 300 182 189 161 148 134
358 23 345 315 336 332 307 289 321 339 281 303 287 310 333 306 302 278 314 314 316 317 305 234 263 245 253 273 268 242 263 194 239 242 251 287 255 277 280 272 185 166 127 129 139
350 342 311 292 297 308 84 322 312 328 308 299 303 322 321 304 305 315 313 312 289 313 302 272 276 303 292 285 208 224 198 210 236 261 261 261 270 275 267 257 166 125 132 138 133
342 325 321 305 317 304 352 321 307 314 295 281 299 317 311 313 319 304 291 286 245 281 317 289 304 302 295 331 301 122 10 308 327 298 281 266 267 273 278 133 125 129 139 134 131